Location: Bad Rothenbrunn
(47.2167°N, 11.2167°E)
Time: 16:21:38
(UTC+00:00)

NOSS 3-3 (C) - Pass Details

Date: 03 March 2021
Orbit: 813 x 1399 km, 63.4° (Epoch: 23 April)

Event Time Altitude Azimuth Distance (km) Brightness Sun altitude
Rises 20:08:32 0° 319° (NW) 3,949 8.1 -31.4°
Reaches altitude 10° 20:11:05 10° 320° (NW) 3,066 7.3 -31.7°
Maximum altitude 20:18:35 89° 230° (SW) 1,279 4.4 -32.9°
Enters shadow 20:18:48 86° 160° (SSE) 1,284 4.4 -32.9°
